Location: Guilderland
(42.7045°N, 73.9115°W)
Time: 01:17:10
(UTC+00:00)

Cosmos 2219 - Pass Details

Date: 24 January 2020
Orbit: 833 x 860 km, 71.1° (Epoch: 19 February)

Event Time Altitude Azimuth Distance (km) Brightness Sun altitude
Rises 22:32:57 0° 206° (SSW) 3,365 7.1 -6.8°
Reaches altitude 10° 22:35:23 10° 208° (SSW) 2,436 6.4 -7.2°
Maximum altitude 22:40:58 78° 294° (WNW) 858 3.4 -8.1°
Drops below altitude 10° 22:46:37 10° 22° (NNE) 2,463 5.3 -9.1°
Sets 22:49:05 0° 24° (NNE) 3,405 6.0 -9.6°
